Probability
6 97 100 100 100 90 81 61 45 55 74 87 100 100 100 100 100 100 100 100 100 100 100 100 100 100 100 100 100 100 100 100 100 100 100 100 100 100 100 100 71 61 97
6 100 100 100 100 100 87 84 68 65 84 94 100 100 100 100 100 100 100 100 100 100 100 100 100 100 100 100 100 100 100 100 100 100 97 94 100 100 100 100 81 68 65
32 97 100 100 100 100 90 84 74 71 87 97 100 100 100 100 100 100 100 100 100 100 100 100 100 100 100 100 100 100 100 100 100 100 90 29 84 100 100 100 100 100 84
26 77 100 100 100 97 94 81 77 71 87 100 100 100 100 100 100 100 97 97 97 100 100 100 100 100 100 100 100 100 100 100 100 100 100 90 35 94 100 100 100 100 94
0 10 100 100 100 97 94 94 81 77 84 100 100 100 100 97 97 94 94 84 84 77 90 100 100 100 97 100 100 100 100 100 100 100 97 84 32 94 100 100 100 100 74
0 23 100 100 100 100 97 97 94 84 87 100 100 100 100 100 100 97 97 97 97 87 77 94 100 100 100 100 100 100 100 100 100 100 97 74 23 100 100 100 100 100 100
6 81 100 100 100 100 100 97 94 87 90 100 100 100 100 100 100 100 100 100 100 97 90 84 87 97 100 100 100 100 100 97 100 81 52 23 3 100 100 100 100 100 100
10 97 100 100 100 100 100 97 97 97 97 97 100 100 100 100 100 100 100 100 100 97 71 65 77 100 100 100 100 100 100 97 77 48 10 0 3 100 100 100 100 100 100
6 94 100 100 100 100 100 100 100 100 100 100 100 100 100 100 100 100 100 100 97 97 87 77 58 65 94 100 100 100 100 100 97 35 3 0 29 100 100 100 100 100 100
13 94 100 100 97 100 100 100 100 100 100 100 100 100 100 97 100 100 100 100 97 97 97 100 100 94 100 100 100 100 100 100 77 6 0 0 42 100 100 100 100 100 100
68 87 94 90 87 97 97 100 100 100 100 100 100 100 100 90 45 100 100 94 97 100 100 100 100 100 100 100 100 100 100 42 3 0 0 0 39 100 100 100 100 100 100
84 74 61 68 58 71 90 100 100 100 100 100 84 94 97 10 3 35 42 100 100 100 100 100 100 100 100 77 61 100 65 6 0 0 0 0 77 100 100 100 100 100 100
71 71 61 39 26 35 23 84 87 74 52 45 23 16 10 6 0 10 3 32 100 100 100 100 100 100 81 32 3 0 0 0 0 0 0 16 94 100 100 100 100 100 100
90 100 84 42 16 3 3 19 26 32 19 26 16 3 0 0 0 0 0 0 6 13 3 0 0 6 3 3 0 0 0 0 0 0 0 32 97 100 100 100 100 100 100
87 97 100 94 65 32 10 3 6 13 16 10 3 13 6 0 0 0 0 0 0 0 0 0 0 0 0 0 0 0 0 0 0 0 0 61 100 100 100 100 100 100 100
19 84 100 100 90 71 71 19 10 3 29 13 3 6 10 0 0 0 0 0 0 0 0 0 0 0 0 0 0 0 0 0 0 0 0 0 90 94 100 100 100 100 100
3 58 94 97 71 61 71 52 10 6 0 0 0 0 0 0 0 0 0 0 0 0 0 0 0 0 0 0 0 0 0 0 0 0 0 0 0 52 87 97 100 100 100
13 74 84 100 71 71 61 61 26 10 6 6 6 6 6 0 0 0 0 0 0 0 0 0 0 0 0 0 0 0 0 0 0 0 0 0 0 0 13 81 100 100 100
16 71 77 90 94 84 87 81 68 65 74 71 52 39 48 52 16 6 10 6 3 0 0 0 0 0 0 0 0 0 0 0 0 0 0 0 0 0 0 0 87 100 100
32 61 68 52 87 97 100 100 81 84 81 87 77 84 71 55 45 3 0 3 3 3 3 0 0 0 0 0 0 0 0 0 0 0 0 0 0 0 0 0 0 10 84
74 74 74 84 87 94 100 97 94 77 74 74 68 74 65 48 35 3 3 0 0 0 0 0 0 0 0 0 0 0 0 0 0 0 0 0 0 0 0 0 0 0 0
90 87 81 84 90 90 94 84 81 84 74 55 26 13 10 10 3 0 0 0 0 0 0 0 0 0 0 0 0 0 0 0 0 0 0 0 0 0 0 0 0 0 0
68 68 61 48 39 29 35 35 29 23 13 3 3 3 3 0 0 0 0 0 0 0 0 0 0 0 0 0 0 0 0 0 0 0 0 0 0 0 0 0 0 0 0
26 26 16 10 6 10 6 3 6 3 3 3 3 0 0 0 0 0 0 0 0 0 0 0 0 0 0 0 0 0 0 0 0 0 0 0 0 0 0 0 0 0 0
6 3 0 0 0 0 0 0 0 3 3 0 0 0 0 0 0 0 0 0 0 0 0 0 0 0 0 0 0 0 0 0 0 0 0 0 0 0 0 0 0 0 0
0 0 0 0 0 0 0 0 0 0 0 0 0 0 0 0 0 0 0 0 0 0 0 0 0 0 0 0 0 0 0 0 0 0 0 0 0 0 0 0 0 0 0
Height
5924 5923 5924 5925 5925 5925 5926 5927 5927 5927 5927 5927 5926 5926 5926 5925 5923 5922 5921 5919 5918 5917 5916 5914 5913 5912 5910 5909 5908 5907 5905 5904 5903 5903 5901 5900 5899 5899 5898 5897 5897 5896 5896
5926 5926 5927 5927 5927 5928 5928 5929 5929 5929 5929 5928 5928 5928 5927 5927 5926 5924 5923 5921 5920 5918 5917 5916 5915 5913 5912 5911 5909 5908 5907 5905 5904 5903 5902 5901 5900 5899 5899 5898 5897 5897 5896
5928 5928 5929 5929 5930 5930 5930 5931 5931 5931 5931 5930 5929 5929 5928 5928 5927 5926 5925 5923 5921 5919 5918 5917 5916 5915 5913 5912 5910 5909 5908 5907 5905 5904 5903 5902 5901 5900 5899 5899 5898 5898 5897
5930 5930 5930 5931 5931 5932 5932 5932 5932 5932 5932 5931 5931 5930 5929 5929 5928 5927 5926 5924 5922 5921 5919 5917 5916 5915 5914 5913 5911 5910 5909 5908 5907 5905 5904 5903 5902 5901 5899 5899 5899 5898 5897
5932 5932 5931 5932 5932 5933 5933 5934 5934 5933 5933 5932 5932 5931 5930 5929 5929 5928 5927 5926 5924 5922 5920 5918 5917 5915 5914 5913 5912 5911 5910 5909 5907 5906 5904 5903 5902 5901 5899 5899 5898 5897 5896
5932 5933 5933 5933 5933 5934 5935 5935 5935 5934 5934 5933 5932 5932 5931 5930 5929 5928 5927 5926 5925 5923 5921 5919 5917 5916 5914 5913 5912 5911 5910 5909 5908 5906 5904 5903 5902 5901 5899 5898 5898 5897 5896
5933 5933 5933 5934 5934 5935 5935 5935 5935 5935 5934 5934 5933 5932 5931 5930 5930 5928 5927 5927 5925 5923 5921 5919 5917 5915 5913 5912 5911 5911 5910 5908 5907 5906 5904 5902 5901 5900 5899 5899 5897 5896 5895
5933 5933 5933 5934 5935 5935 5935 5935 5935 5934 5934 5933 5932 5931 5930 5929 5929 5928 5926 5925 5924 5922 5921 5919 5917 5915 5913 5911 5910 5910 5909 5908 5907 5905 5903 5902 5901 5900 5899 5898 5896 5895 5894
5932 5933 5933 5934 5934 5934 5934 5934 5934 5933 5933 5932 5931 5930 5929 5927 5927 5926 5924 5923 5922 5920 5919 5917 5916 5914 5913 5911 5909 5909 5908 5907 5906 5904 5902 5901 5900 5899 5897 5896 5894 5893 5892
5931 5932 5932 5932 5933 5933 5932 5932 5932 5931 5931 5930 5929 5929 5927 5926 5924 5923 5922 5920 5919 5918 5916 5914 5913 5912 5911 5910 5908 5907 5906 5906 5905 5903 5901 5900 5898 5897 5895 5893 5892 5890 5889
5930 5930 5931 5931 5931 5931 5930 5930 5930 5929 5928 5928 5927 5926 5925 5924 5922 5921 5919 5918 5916 5915 5914 5912 5910 5909 5908 5908 5906 5905 5904 5903 5902 5901 5900 5898 5897 5896 5894 5892 5890 5888 5887
5928 5929 5929 5929 5929 5929 5928 5928 5927 5926 5926 5925 5924 5923 5922 5921 5920 5918 5917 5915 5914 5912 5911 5909 5907 5906 5905 5905 5904 5902 5901 5900 5900 5899 5897 5897 5896 5894 5892 5890 5888 5886 5885
5927 5927 5927 5927 5926 5926 5926 5925 5924 5923 5922 5921 5921 5920 5919 5918 5916 5915 5914 5912 5910 5909 5908 5906 5904 5902 5901 5901 5900 5899 5898 5897 5897 5896 5895 5894 5892 5891 5890 5888 5886 5884 5882
5924 5925 5925 5924 5924 5923 5922 5921 5920 5919 5919 5918 5917 5917 5916 5915 5913 5911 5910 5909 5907 5906 5904 5903 5901 5899 5898 5897 5895 5894 5894 5893 5893 5892 5891 5890 5889 5888 5887 5885 5883 5881 5879
5921 5921 5921 5921 5920 5919 5918 5917 5916 5915 5914 5914 5913 5912 5912 5911 5910 5909 5907 5905 5904 5902 5901 5899 5897 5895 5894 5893 5891 5890 5889 5889 5889 5888 5887 5886 5885 5884 5883 5882 5880 5878 5877
5918 5918 5918 5918 5917 5916 5914 5913 5912 5911 5910 5910 5910 5909 5908 5908 5907 5905 5904 5902 5900 5898 5896 5894 5892 5890 5889 5888 5886 5885 5884 5884 5884 5884 5883 5882 5881 5880 5879 5878 5876 5875 5874
5913 5913 5913 5913 5912 5911 5909 5908 5907 5906 5906 5905 5905 5904 5903 5902 5901 5900 5898 5897 5896 5894 5891 5889 5887 5885 5883 5882 5881 5880 5879 5879 5879 5879 5878 5877 5876 5875 5875 5874 5872 5871 5870
5906 5907 5907 5906 5906 5905 5903 5902 5900 5899 5898 5897 5897 5897 5896 5895 5894 5893 5891 5890 5889 5888 5886 5884 5881 5880 5878 5876 5875 5874 5873 5873 5873 5873 5872 5871 5870 5869 5869 5869 5868 5866 5865
5898 5899 5899 5899 5898 5897 5896 5895 5894 5893 5892 5891 5890 5889 5889 5888 5887 5886 5885 5883 5882 5881 5879 5877 5875 5873 5872 5870 5869 5868 5867 5866 5867 5867 5866 5865 5864 5864 5863 5863 5862 5861 5860
5891 5891 5891 5891 5890 5889 5889 5888 5887 5886 5885 5885 5884 5883 5882 5882 5881 5880 5878 5876 5875 5874 5872 5870 5868 5866 5865 5864 5862 5861 5861 5860 5860 5860 5859 5859 5859 5858 5858 5857 5857 5856 5855
5884 5882 5883 5882 5881 5880 5880 5880 5879 5879 5878 5877 5876 5875 5875 5874 5874 5872 5871 5869 5867 5866 5864 5862 5861 5859 5858 5856 5855 5854 5854 5853 5853 5853 5853 5853 5853 5852 5851 5851 5851 5850 5850
5874 5871 5871 5870 5870 5870 5870 5871 5871 5870 5870 5869 5868 5867 5867 5866 5865 5864 5863 5861 5858 5857 5856 5854 5852 5851 5850 5848 5848 5847 5847 5847 5846 5846 5846 5846 5846 5845 5844 5844 5844 5844 5843
5863 5862 5861 5860 5860 5861 5862 5862 5862 5861 5861 5860 5860 5859 5859 5858 5857 5855 5854 5852 5849 5847 5845 5843 5842 5842 5841 5840 5839 5839 5839 5839 5839 5839 5838 5838 5838 5838 5838 5837 5836 5836 5837
5854 5854 5852 5850 5851 5852 5852 5853 5853 5852 5852 5851 5851 5851 5850 5849 5847 5846 5844 5842 5840 5837 5835 5833 5831 5831 5830 5830 5830 5830 5830 5830 5831 5831 5831 5830 5831 5831 5831 5830 5829 5829 5829
5844 5844 5843 5842 5842 5842 5843 5843 5843 5843 5843 5843 5842 5842 5841 5839 5838 5836 5834 5832 5829 5827 5825 5822 5821 5820 5820 5820 5820 5820 5821 5821 5821 5822 5822 5822 5822 5823 5823 5822 5821 5821 5822
5832 5832 5832 5832 5833 5833 5834 5834 5834 5834 5834 5833 5833 5833 5832 5830 5828 5826 5824 5821 5819 5816 5814 5812 5810 5809 5809 5810 5810 5811 5811 5811 5811 5812 5813 5813 5813 5814 5814 5814 5814 5814 5814
Wind_Speed
16 18 17 17 18 18 17 17 16 15 16 15 15 14 14 13 14 15 15 16 17 18 18 18 17 16 15 15 14 13 13 12 11 10 10 11 11 11 11 8 5 4 4
16 16 15 15 15 15 14 13 12 12 12 13 13 12 12 12 13 14 14 15 16 16 17 17 16 15 14 13 13 13 12 12 12 11 11 11 11 11 11 9 7 4 1
14 14 13 13 12 12 12 11 10 10 10 10 11 11 11 11 11 12 13 14 15 16 16 16 15 14 13 12 12 12 12 11 10 10 10 10 10 11 10 9 6 3 0
11 11 12 11 10 11 11 11 10 10 9 9 9 9 9 8 8 9 11 12 13 14 15 15 15 14 13 12 11 11 11 10 9 8 8 8 8 9 9 8 6 3 1
8 8 9 9 9 9 10 10 10 10 9 8 8 7 7 7 8 8 9 11 13 14 14 15 14 13 12 12 12 10 10 9 8 7 8 7 6 7 7 8 7 5 3
6 5 5 6 6 7 8 8 8 7 7 6 6 7 7 7 9 9 10 12 14 15 15 15 15 14 12 12 12 11 10 9 8 7 7 8 7 6 7 8 8 7 6
1 2 2 2 3 4 5 6 6 6 7 6 7 7 8 9 10 11 13 14 16 17 17 16 15 15 13 11 11 11 10 8 8 8 7 8 8 8 8 8 8 8 8
4 3 3 2 3 3 3 4 4 5 6 7 7 8 9 10 11 12 13 14 16 17 18 17 17 16 14 11 11 11 10 9 8 8 9 10 9 8 8 9 9 9 8
8 8 8 7 6 6 5 5 5 4 5 6 7 8 9 9 10 11 12 14 15 16 17 18 17 16 15 13 11 11 10 10 9 8 9 10 10 9 9 10 11 11 11
10 10 10 10 10 8 7 6 6 5 4 5 8 9 10 10 10 11 12 13 14 15 16 17 17 16 15 14 13 12 11 11 9 9 9 9 9 10 11 11 12 12 12
11 11 11 12 11 10 8 8 9 9 8 9 11 13 13 12 11 12 13 13 14 15 16 17 17 16 15 15 15 15 14 13 11 10 10 10 10 11 13 14 14 13 12
11 11 11 11 11 12 12 12 13 14 15 16 17 17 15 13 13 13 15 16 17 17 17 17 17 16 15 16 17 17 17 15 13 12 12 12 12 13 15 16 16 14 12
12 11 12 12 13 15 16 17 18 18 19 19 18 16 14 14 14 16 18 19 20 20 19 19 19 17 16 16 18 18 18 16 15 15 14 14 15 16 17 18 17 15 12
12 12 13 14 14 15 16 17 17 18 18 18 17 14 13 13 15 18 20 21 22 22 21 20 21 21 18 18 19 19 19 18 17 16 16 16 17 17 18 18 18 15 13
13 13 14 15 15 16 17 16 16 17 17 17 17 17 16 16 17 19 22 24 26 26 24 23 22 23 22 21 20 21 20 20 19 18 17 17 18 18 19 19 17 15 13
17 18 17 17 17 18 19 19 19 19 18 18 17 18 18 19 19 21 23 26 28 29 28 26 24 24 24 24 23 23 22 22 22 20 20 19 19 19 19 18 15 13 13
22 22 22 21 21 21 22 22 23 24 24 22 21 20 21 22 23 24 26 28 30 31 30 29 26 25 25 25 25 25 24 24 24 23 22 21 20 20 20 19 16 14 14
26 26 26 25 25 25 25 26 26 27 28 28 28 26 26 27 28 29 30 32 34 35 34 32 30 27 26 25 26 27 26 26 26 26 25 24 23 22 21 20 18 16 16
30 28 29 29 29 29 29 29 29 29 30 32 33 32 33 33 33 34 35 36 38 37 36 34 33 30 28 26 26 27 29 29 28 28 28 27 25 24 23 22 20 18 18
31 30 32 33 33 33 32 32 32 33 34 35 36 37 37 36 36 38 40 40 41 39 37 35 34 32 30 29 27 28 28 30 30 30 30 30 28 26 25 24 22 20 20
34 35 37 38 37 36 34 34 35 36 37 38 40 40 40 40 41 42 43 44 44 41 39 37 36 34 32 31 29 28 28 29 31 32 32 32 30 28 26 24 23 22 21
40 38 37 39 38 37 35 35 37 39 40 41 42 42 42 42 43 44 45 46 46 45 42 41 39 37 35 33 31 29 28 29 30 32 33 33 32 29 27 26 25 24 23
39 39 39 42 40 38 37 38 39 41 42 42 42 42 42 43 44 45 45 45 45 47 46 45 43 41 38 35 33 31 29 30 31 32 33 33 33 31 29 29 28 28 25
39 41 40 39 39 40 40 40 41 42 42 42 42 41 41 42 43 44 44 44 45 46 47 47 45 43 40 37 35 33 32 32 32 33 34 34 34 33 33 32 31 30 27
40 40 40 40 40 41 41 41 43 42 42 41 40 40 40 41 43 43 44 45 45 46 46 46 45 43 40 37 36 35 34 33 33 33 33 35 35 34 34 34 33 31 29
42 41 41 39 38 39 39 39 40 40 39 39 39 39 41 42 43 44 45 46 46 45 45 44 43 42 39 38 37 37 35 34 33 34 33 34 36 36 34 33 33 32 30
Wind_Direction
88 87 88 87 85 82 79 76 72 70 69 64 56 49 44 43 44 42 35 31 29 28 32 38 42 42 42 44 46 47 47 46 44 41 34 33 37 38 38 42 57 85 96
90 88 87 85 83 80 77 72 65 61 62 61 56 49 43 41 40 37 30 25 24 21 21 26 33 34 36 38 40 43 48 50 49 43 37 35 38 42 45 48 56 73 107
93 91 87 84 83 81 75 66 57 52 53 54 52 50 46 45 43 37 29 23 20 18 15 14 19 24 26 28 32 37 44 51 50 44 37 32 30 36 42 43 45 48 2
95 94 91 87 83 80 76 69 60 55 52 50 49 52 48 43 38 31 24 18 14 12 11 10 8 11 15 16 21 27 35 43 42 35 31 32 26 25 32 31 28 25 350
91 92 92 90 84 78 75 71 64 58 55 51 48 49 41 26 15 8 4 2 360 358 359 1 2 2 3 4 6 13 20 27 29 21 10 17 25 19 23 25 25 26 11
96 94 87 84 81 75 70 65 60 52 46 41 35 30 20 9 1 355 351 350 349 348 347 348 351 353 354 356 355 359 8 13 13 9 356 353 2 4 11 18 20 20 15
125 118 92 64 58 54 53 51 46 37 31 24 18 15 9 3 357 353 350 347 343 340 338 337 338 342 344 348 348 349 355 360 356 353 346 338 348 349 349 355 2 6 6
276 273 272 297 325 338 358 5 7 12 18 22 21 17 10 5 1 358 354 348 341 336 332 329 329 329 333 340 342 342 343 346 344 338 331 331 346 348 336 336 336 336 334
284 280 281 286 293 299 309 321 326 338 360 10 10 5 359 356 356 355 352 348 343 337 328 321 319 320 321 328 334 336 337 337 337 335 327 327 338 341 335 330 328 322 315
287 284 281 279 283 292 301 307 305 303 317 337 345 345 342 339 337 338 338 339 337 336 330 321 314 311 310 313 320 325 327 328 322 320 317 320 328 332 334 334 330 324 316
280 283 284 279 278 285 293 296 294 291 294 305 316 323 325 327 328 329 330 331 329 330 329 322 314 308 303 304 310 314 316 317 311 306 305 308 312 320 326 327 328 328 324
275 279 280 275 272 275 283 287 288 289 293 299 305 308 311 312 317 324 329 332 333 331 328 320 312 307 299 297 301 305 308 308 302 295 295 297 298 306 315 317 319 323 325
269 269 269 269 270 276 279 280 281 286 293 298 301 303 302 304 311 320 328 334 337 336 332 321 310 304 297 292 293 296 299 300 297 290 288 292 295 299 304 309 312 315 319
266 263 260 263 268 276 282 283 283 284 290 297 301 303 304 308 314 318 325 331 332 331 330 323 309 300 294 290 288 288 289 293 295 289 285 288 292 294 298 303 306 308 310
261 261 263 266 274 282 288 292 293 295 299 302 303 304 308 313 314 316 320 325 327 326 325 321 313 299 290 284 281 279 280 285 290 290 286 285 285 287 291 296 301 305 309
259 263 267 271 275 281 285 288 290 294 297 298 296 298 303 308 310 311 315 319 321 322 319 318 314 305 291 281 276 272 271 275 281 284 282 280 279 281 286 291 295 301 307
262 266 270 274 277 279 282 286 289 291 294 295 293 293 298 305 309 309 311 315 316 316 315 314 312 310 298 282 275 272 269 270 274 278 279 278 278 278 280 283 286 292 300
262 267 272 276 277 279 282 285 288 291 294 296 296 295 298 303 307 308 309 311 313 312 310 309 309 307 303 289 274 270 269 266 267 272 277 279 279 280 280 279 280 284 292
258 264 271 276 278 280 284 287 288 289 291 292 294 295 297 300 302 304 305 308 310 309 306 305 304 303 300 295 280 271 270 267 265 269 273 276 277 279 280 278 277 280 286
258 260 268 273 274 277 280 283 284 286 287 289 290 292 293 294 295 297 300 302 305 305 303 301 300 299 295 293 287 274 270 268 267 267 269 271 273 275 276 276 275 275 279
267 265 269 267 267 269 272 276 279 281 283 285 286 288 289 289 291 292 294 298 300 301 300 298 296 293 292 290 287 279 273 270 266 264 266 268 271 271 272 272 272 272 278
268 262 262 264 265 266 268 272 274 276 278 280 283 285 286 287 288 290 292 294 296 296 296 295 293 289 286 285 283 281 278 273 266 262 264 267 269 269 268 268 270 271 276
270 272 268 265 267 266 270 271 271 273 275 278 280 282 283 285 287 289 291 292 293 293 293 292 290 286 282 279 278 277 276 273 267 263 263 264 264 266 267 267 269 269 273
270 271 269 267 266 267 268 270 272 275 278 279 280 281 283 286 289 290 290 291 291 290 289 288 287 283 279 274 272 272 273 270 267 264 265 265 263 264 264 265 267 266 269
272 272 270 268 267 268 270 272 274 277 279 280 281 282 285 288 289 290 290 290 289 288 286 285 283 280 276 271 267 266 268 269 265 263 263 264 262 263 263 263 262 263 263
271 272 272 271 271 271 273 274 276 278 279 280 281 283 285 287 289 290 291 290 289 287 285 283 281 279 274 268 264 264 266 267 266 263 262 263 264 264 264 261 259 259 260